STARLINK-1936, 46772

Orbit data source: Space-Track

STARLINK-1936, 46772 is a payload satellite owned by SpaceX/Seattle (US) in LEO that was launched on Sat, 24 Oct 2020 UTC via an FALCON 9 launch vehicle from the Air Force Eastern Test Range (AFETR). Payloads include a variety of satellites, spacecraft, and rockets equipped with specific instruments for various scientific and technological missions. These include communications satellites like Starlink; space stations such as the ISS; scientific satellites like the Hubble; Earth observation satellites from companies like Planet Labs, Umbra, and HawkEye 360; GPS; miniature CubeSats for education and research; and military/defense satellites.

Loading next visibility...
STARLINK-1936 details
Identifier
46772, 2020-074AK
Orbit
LEO
Last TLE update20 hours ago
Origin
Flag of USSpaceX/Seattle (US)
ManufacturerSpaceX/Seattle
MissionPartially operational Commercial Communications
Bus & MotorSTARLINK, Unknown motor
Mass260 kg wet, ~248 kg dry
Launch date (UTC)
2020-10-24 (4 years ago)
Launch vehicle
FALCON 9
Launch site
Air Force Eastern Test Range (AFETR)
Object type
Payload
Rocket body
Debris
Shape & HBRBox + 1 Pan, 8.86 m
Radar Cross Section13.562 m², Large (>1 m²)

Expand to show TLE details & history

TLE from 20 hours ago
0 STARLINK-1936
1 46772U 20074AK  24360.58335648  .00293043  00000-0  22641-2 0  9994
2 46772  53.0517 136.8316 0003479 353.6553 141.0464 15.70491908  5863
Epoch: 2024-12-25T14:00Z
Definitive object data (Epoch: 2024-12-25T14:00:01.999Z)
Latitude34.71048°
Longitude-18.95573°
Altitude361.823 km
Speed7.696 km/s
True Right ascension19h 02m 30s
True Declination34° 32' 25"
Sunlit
Object was in daylight at TLE epoch
Visualization TLE readout
Latitude-32.43314°
Longitude36.45257°
Altitude367.79 km
Speed7.688 km/s
Apparent Right ascension22h 11m 57s
Apparent Declination-36° 12' 23"
Sunlit
Object is in daylight
Visualization observer readout
Local Sidereal Time09:34:28
Azimuth293.741° NW
Elevation-81.747°
Doppler factor1
Orbital elements
Apogee altitude360.112 km
Perigee altitude355.425 km
Semi-major axis6,735.906 km
Eccentricity0.0003479
Inclination53.0517°
RAAN136.8316°
Arg. of periapsis353.6553°
True anomaly141.07146°
Mean anomaly141.0464°
Eccentric anomaly141.05893°
Mean motion3.92599 °/min
BSTAR0.0022641
Orbital period91.7 mins
Loading maneuver chart data...

STARLINK-1936 Visibility forecast

Observer location: undefined°, undefined

Span
Click to sort rows by Start time (UTC) header in descending order
Start Az.
Max El. time (UTC)
Max El. Az.
Max El.
End time (UTC)
End Az.
4 mins2024-12-26 12:33:19.411Z266.322° W2024-12-26 12:35:19.411Z349.599° N30.429°2024-12-26 12:37:19.411Z34.334° NE
|